Погода в Можге

Россия / Удмуртская Республика     56°22′25″N   52°15′26″E
темп.,
°C
ветер,
м/с
пор.,
м/с
влажн.,
%
обл.,
%
осадки,
мм/ч
давл.,
гПа
погр.,
м
18 августа, чт
чт1801:00+15св22592 0.0 102313
04:00+14ссв33705 0.0 102430
07:00+15св467429 0.0 1025200
10:00+20всв55621 0.0 1025788
13:00+22всв56430 0.0 10251483
16:00+22св66320 0.0 10251642
19:00+17св47480 0.0 1026150
22:00+13всв47590 0.0 1027116
19 августа, пт
пт1901:00+12в37610 0.0 1029113
04:00+10в35680 0.0 103167
07:00+12в37640 0.0 1033192
10:00+17в46485 0.0 1034755
13:00+20в4541100 0.0 10331290
16:00+21всв34386 0.0 10331375
19:00+18св22525 0.0 103211
22:00+14с11570 0.0 103311
20 августа, сб
сб2001:00+13ссз22615 0.0 103310
04:00+12с22715 0.0 103416
07:00+14с24695 0.0 1034100
10:00+20с34480 0.0 1033550
13:00+24с33400 0.0 10321069
16:00+25ссз33400 0.0 10311370
19:00+21ссз33580 0.0 103045
22:00+17с33685 0.0 103029
21 августа, вс
вс2101:00+16с33770 0.0 103030
04:00+15с33815 0.0 103049
07:00+17с24753 0.0 1030120
10:00+23с34525 0.0 1029520
13:00+27с33405 0.0 10281719
16:00+27ссв343750 0.0 10272234
19:00+23ссв355599 0.0 102799
22:00+20св236688 0.0 102740
22 августа, пн
пн2201:00+17всв238013 0.0 102828
04:00+16всв349056 0.0 102853
07:00+17всв368026 0.0 1029168
10:00+23в45545 0.0 1029699
13:00+26в34435 0.0 10291407
16:00+26в354310 0.0 10281883
19:00+23всв3357100 0.0 102858
22:00+22всв245981 0.0 102974